Staples, MN

7:20 AM CST on November 24, 2017 (GMT -0600)
Staples Municipal

Weather History for KSAZ - November, 2013

Change the Weather History Date:

Tuesday, November 26, 2013

  Actual Average Record
Temperature  
Mean Temperature 12 °F -  
Max Temperature 21 °F 31 °F 48 °F (1998)
Min Temperature 3 °F 16 °F -16 °F (1996)
Degree Days  
Heating Degree Days 53    
Moisture  
Dew Point 4 °F    
Average Humidity 71    
Maximum Humidity 92    
Minimum Humidity 53    
Precipitation  
Precipitation 0.00 in - - ()
Sea Level Pressure  
Sea Level Pressure 30.25 in    
Wind  
Wind Speed 15 mph (NW)    
Max Wind Speed 25 mph    
Max Gust Speed 33 mph    
Visibility 10 miles    
Events Snow    
Averages and records for this station are not official NWS values.
T = Trace of Precipitation, MM = Missing Value Source: NWS Daily Summary

Daily Weather History Graph

Daily Weather History Graph

Search for Another Location

Airport or City:

Trip Planner

Search our weather history database for the weather conditions in past years. The results will help you decide how hot, cold, wet, or windy it might be!

Date:

Astronomy

Nov. 26, 2013 Rise Set
Actual Time 7:36 AM CST 4:36 PM CST
Civil Twilight 7:02 AM CST 5:10 PM CST
Nautical Twilight 6:25 AM CST 5:47 PM CST
Astronomical Twilight 5:48 AM CST 6:23 PM CST
Moon 12:18 AM CST (11/26) 1:04 PM CST (11/26)
Length of Visible Light 10h 08m
Length of Day
9h 00m
Last Quarter, 41% of the Moon is Illuminated
Nov 26
Last Quarter
Dec 2
New
Dec 9
First Quarter
Dec 17
Full
Dec 25
Last Quarter

Hourly Weather History & Observations

Time (CST) Temp. Windchill Dew Point Humidity Pressure Visibility Wind Dir Wind Speed Gust Speed Precip Events Conditions
12:13 AM 21.2 °F 6.4 °F 15.8 °F 80% 30.08 in 10.0 mi WNW 18.4 mph 25.3 mph N/A   Overcast
12:33 AM 19.4 °F 7.2 °F 15.8 °F 86% 30.08 in 10.0 mi WNW 11.5 mph - N/A Snow Light Snow
12:54 AM 19.4 °F 5.5 °F 14.0 °F 80% 30.08 in 10.0 mi WNW 15.0 mph 20.7 mph N/A   Overcast
1:13 AM 19.4 °F 5.0 °F 15.8 °F 86% 30.08 in 7.0 mi WNW 16.1 mph - N/A Snow Light Snow
1:33 AM 19.4 °F 4.5 °F 14.0 °F 80% 30.09 in 10.0 mi WNW 17.3 mph 25.3 mph N/A   Overcast
1:53 AM 19.4 °F 4.5 °F 12.2 °F 74% 30.09 in 10.0 mi WNW 17.3 mph 23.0 mph N/A   Overcast
2:14 AM 19.4 °F 2.8 °F 12.2 °F 74% 30.10 in 7.0 mi WNW 21.9 mph 25.3 mph N/A Snow Light Snow
2:33 AM 17.6 °F -0.6 °F 6.8 °F 63% 30.11 in 10.0 mi WNW 25.3 mph 32.2 mph N/A   Scattered Clouds
2:53 AM 15.8 °F -1.5 °F 3.2 °F 58% 30.12 in 10.0 mi NW 20.7 mph 32.2 mph N/A   Scattered Clouds
3:13 AM 14.0 °F -3.4 °F 1.4 °F 57% 30.13 in 10.0 mi NW 19.6 mph 33.4 mph N/A   Clear
3:33 AM 12.2 °F -6.3 °F 3.2 °F 67% 30.14 in 10.0 mi NW 20.7 mph 25.3 mph N/A   Clear
3:53 AM 12.2 °F -5.3 °F 3.2 °F 67% 30.14 in 10.0 mi NW 18.4 mph 25.3 mph N/A   Scattered Clouds
4:14 AM 12.2 °F -4.8 °F 5.0 °F 73% 30.14 in 10.0 mi NW 17.3 mph 21.9 mph N/A   Scattered Clouds
4:33 AM 12.2 °F -1.8 °F 5.0 °F 73% 30.15 in 10.0 mi NW 11.5 mph 24.2 mph N/A   Clear
4:53 AM 10.4 °F -6.0 °F 5.0 °F 79% 30.16 in 10.0 mi NW 15.0 mph 20.7 mph N/A   Clear
5:14 AM 10.4 °F -5.4 °F 5.0 °F 79% 30.16 in 10.0 mi NW 13.8 mph - N/A   Clear
5:33 AM 10.4 °F -6.6 °F 3.2 °F 73% 30.17 in 10.0 mi NW 16.1 mph 20.7 mph N/A   Clear
5:53 AM 10.4 °F -5.4 °F 3.2 °F 73% 30.17 in 10.0 mi WNW 13.8 mph - N/A   Clear
6:13 AM 10.4 °F -7.2 °F 3.2 °F 73% 30.17 in 10.0 mi NW 17.3 mph 23.0 mph N/A   Clear
6:34 AM 10.4 °F -4.8 °F 3.2 °F 73% 30.17 in 10.0 mi WNW 12.7 mph - N/A   Scattered Clouds
6:53 AM 10.4 °F -4.8 °F 3.2 °F 73% 30.18 in 10.0 mi WNW 12.7 mph 19.6 mph N/A   Scattered Clouds
7:13 AM 10.4 °F -4.8 °F 3.2 °F 73% 30.17 in 10.0 mi NW 12.7 mph 19.6 mph N/A   Clear
7:34 AM 10.4 °F -6.0 °F 5.0 °F 79% 30.18 in 10.0 mi NW 15.0 mph 20.7 mph N/A   Scattered Clouds
7:53 AM 10.4 °F -6.6 °F 5.0 °F 79% 30.19 in 10.0 mi NW 16.1 mph 24.2 mph N/A   Mostly Cloudy
8:13 AM 10.4 °F -6.6 °F 5.0 °F 79% 30.20 in 10.0 mi NW 16.1 mph 21.9 mph N/A   Overcast
8:33 AM 10.4 °F -4.8 °F 5.0 °F 79% 30.21 in 10.0 mi NW 12.7 mph - N/A   Overcast
8:53 AM 12.2 °F -5.3 °F 5.0 °F 73% 30.22 in 10.0 mi NNW 18.4 mph 26.5 mph N/A   Overcast
9:13 AM 12.2 °F -5.3 °F 3.2 °F 67% 30.23 in 10.0 mi NNW 18.4 mph 26.5 mph N/A   Overcast
9:33 AM 12.2 °F -4.8 °F 3.2 °F 67% 30.24 in 10.0 mi NNW 17.3 mph 24.2 mph N/A   Overcast
9:53 AM 12.2 °F -4.8 °F 3.2 °F 67% 30.25 in 10.0 mi NW 17.3 mph - N/A   Overcast
10:13 AM 14.0 °F -1.4 °F 5.0 °F 67% 30.26 in 10.0 mi NNW 15.0 mph 20.7 mph N/A   Overcast
10:33 AM 14.0 °F -2.0 °F 3.2 °F 62% 30.26 in 10.0 mi NNW 16.1 mph 25.3 mph N/A   Overcast
10:53 AM 14.0 °F -1.4 °F 3.2 °F 62% 30.26 in 10.0 mi NW 15.0 mph 24.2 mph N/A   Overcast
11:13 AM 15.8 °F -0.6 °F 3.2 °F 58% 30.27 in 10.0 mi NW 18.4 mph 23.0 mph N/A   Mostly Cloudy
11:33 AM 15.8 °F -0.6 °F 3.2 °F 58% 30.26 in 10.0 mi NNW 18.4 mph - N/A   Mostly Cloudy
11:54 AM 15.8 °F -1.1 °F 3.2 °F 58% 30.26 in 10.0 mi NNW 19.6 mph 31.1 mph N/A   Mostly Cloudy
12:13 PM 15.8 °F -1.1 °F 3.2 °F 58% 30.27 in 10.0 mi NW 19.6 mph 26.5 mph N/A   Mostly Cloudy
12:33 PM 15.8 °F 0.9 °F 3.2 °F 58% 30.26 in 10.0 mi NW 15.0 mph 23.0 mph N/A   Overcast
12:54 PM 17.6 °F 2.2 °F 3.2 °F 53% 30.26 in 10.0 mi NNW 17.3 mph 25.3 mph N/A   Overcast
1:13 PM 15.8 °F -0.2 °F 3.2 °F 58% 30.26 in 10.0 mi NW 17.3 mph 24.2 mph N/A   Overcast
1:33 PM 17.6 °F 3.2 °F 3.2 °F 53% 30.26 in 10.0 mi NNW 15.0 mph 21.9 mph N/A   Overcast
1:54 PM 15.8 °F -0.2 °F 3.2 °F 58% 30.26 in 10.0 mi NNW 17.3 mph 20.7 mph N/A   Mostly Cloudy
2:13 PM 15.8 °F 0.9 °F 3.2 °F 58% 30.27 in 10.0 mi NNW 15.0 mph 19.6 mph N/A   Overcast
2:33 PM 15.8 °F 0.9 °F 3.2 °F 58% 30.27 in 10.0 mi North 15.0 mph 23.0 mph N/A   Overcast
2:53 PM 15.8 °F 0.9 °F 3.2 °F 58% 30.28 in 10.0 mi NW 15.0 mph - N/A   Overcast
3:14 PM 15.8 °F 0.9 °F 3.2 °F 58% 30.29 in 10.0 mi NNW 15.0 mph 19.6 mph N/A   Mostly Cloudy
3:33 PM 15.8 °F 0.3 °F 3.2 °F 58% 30.29 in 10.0 mi North 16.1 mph 20.7 mph N/A   Mostly Cloudy
3:53 PM 15.8 °F 0.9 °F 3.2 °F 58% 30.30 in 10.0 mi NNW 15.0 mph 19.6 mph N/A   Mostly Cloudy
4:14 PM 14.0 °F -0.2 °F 3.2 °F 62% 30.31 in 10.0 mi NNW 12.7 mph - N/A   Mostly Cloudy
4:33 PM 14.0 °F -0.8 °F 3.2 °F 62% 30.32 in 10.0 mi NNW 13.8 mph 20.7 mph N/A   Mostly Cloudy
4:54 PM 12.2 °F -1.0 °F 3.2 °F 67% 30.33 in 10.0 mi NW 10.4 mph - N/A   Mostly Cloudy
5:13 PM 12.2 °F -3.1 °F 3.2 °F 67% 30.33 in 10.0 mi NW 13.8 mph - N/A   Mostly Cloudy
5:33 PM 12.2 °F -1.8 °F 3.2 °F 67% 30.34 in 10.0 mi NW 11.5 mph - N/A   Scattered Clouds
5:54 PM 10.4 °F -2.4 °F 3.2 °F 73% 30.34 in 10.0 mi NNW 9.2 mph - N/A   Clear
6:13 PM 10.4 °F -2.4 °F 3.2 °F 73% 30.35 in 10.0 mi NNW 9.2 mph - N/A   Clear
6:33 PM 10.4 °F -1.5 °F 3.2 °F 73% 30.35 in 10.0 mi NNW 8.1 mph - N/A   Clear
6:54 PM 10.4 °F -1.5 °F 3.2 °F 73% 30.35 in 10.0 mi NNW 8.1 mph - N/A   Clear
7:13 PM 8.6 °F -3.7 °F 3.2 °F 79% 30.35 in 10.0 mi NW 8.1 mph - N/A   Clear
7:33 PM 8.6 °F -3.7 °F 3.2 °F 79% 30.36 in 10.0 mi NW 8.1 mph - N/A   Clear
7:54 PM 8.6 °F -3.7 °F 3.2 °F 79% 30.36 in 10.0 mi NW 8.1 mph - N/A   Clear
8:13 PM 8.6 °F -4.7 °F 3.2 °F 79% 30.36 in 10.0 mi NW 9.2 mph - N/A   Clear
8:33 PM 8.6 °F -3.7 °F 3.2 °F 79% 30.36 in 10.0 mi NW 8.1 mph - N/A   Clear
8:54 PM 8.6 °F 0.1 °F 3.2 °F 79% 30.36 in 10.0 mi NNW 4.6 mph - N/A   Clear
9:13 PM 8.6 °F -2.6 °F 3.2 °F 79% 30.36 in 10.0 mi NNW 6.9 mph - N/A   Clear
9:33 PM 8.6 °F -2.6 °F 3.2 °F 79% 30.37 in 10.0 mi NNW 6.9 mph - N/A   Scattered Clouds
9:54 PM 6.8 °F -3.5 °F 3.2 °F 85% 30.37 in 10.0 mi NW 5.8 mph - N/A   Scattered Clouds
10:13 PM 6.8 °F -4.8 °F 3.2 °F 85% 30.36 in 10.0 mi NW 6.9 mph - N/A   Clear
10:33 PM 5.0 °F -6.9 °F 3.2 °F 92% 30.36 in 10.0 mi NW 6.9 mph - N/A   Clear
10:54 PM 6.8 °F -2.0 °F 3.2 °F 85% 30.36 in 10.0 mi NW 4.6 mph - N/A   Clear
11:13 PM 5.0 °F -4.1 °F 1.4 °F 85% 30.36 in 10.0 mi NW 4.6 mph - N/A   Clear
11:33 PM 3.2 °F -6.2 °F 1.4 °F 92% 30.36 in 10.0 mi WNW 4.6 mph - N/A   Clear
11:54 PM 3.2 °F - 1.4 °F 92% 30.37 in 10.0 mi Calm Calm - N/A   Clear